2019-093L (44889 NORAD) Tracking and Keplerian Element Data

This shows tracking and keplerian element data for the satellite.

Feedback or suggestion? Click here.




ElementValue
Catalog44889
Name2019-093L
Epoch Orbit422
Epoch Day18.17581645
Epoch Year2020
RAAN95.0967
Inclination97.9716
Eccentricity0.0016205
Argument of Perigee154.7411
Mean Anonmoly205.4611
Mean Motion14.80726718
Decay Rate1.24E-06
L11 44889U 19093L 20018.17581645 .00000124 00000-0 23055-4 0 9999
L22 44889 97.9716 95.0967 0016205 154.7411 205.4611 14.80726718 4228

Live tracking and technical data element details for 2019-093L (NORAD 44889). 2019-093L can be tracked NOW for your location showing map with azimuth and elevation plus other details from your city location.

Track the satellite on the map from your city or location and see movement details for azimuth, elevation, latitude, longitude, range, height, and movement on the map or in text.







IsCatalogInMostPopularTable: catalog: 44889, numindb: 33
Update: records affected: 1



GetName: 44889 2019-093L

Hit Count: updated at: Fri, 10 Apr 2020 19:16:19 GMT